White Rock, British Columbia

12:09 PM PDT on August 21, 2017 (GMT -0700)
White Rock

Weather History for CWWK - January, 2013

Change the Weather History Date:

Sunday, January 13, 2013

  Actual Average Record
Temperature  
Mean Temperature 28 °F -  
Max Temperature 34 °F - - ()
Min Temperature 23 °F - - ()
Degree Days  
Heating Degree Days 36    
Moisture  
Dew Point 21 °F    
Average Humidity 72    
Maximum Humidity 82    
Minimum Humidity 57    
Precipitation  
Precipitation 0.00 in - - ()
Sea Level Pressure  
Sea Level Pressure 30.50 in    
Wind  
Wind Speed 2 mph ()    
Max Wind Speed 4 mph    
Max Gust Speed -    
T = Trace of Precipitation, MM = Missing Value Source: Averaged Metar Reports

Daily Weather History Graph

Daily Weather History Graph

Search for Another Location

Airport or City:

Trip Planner

Search our weather history database for the weather conditions in past years. The results will help you decide how hot, cold, wet, or windy it might be!

Date:

Astronomy

Jan. 13, 2013 Rise Set
Actual Time 8:00 AM PST 4:39 PM PST
Civil Twilight 7:24 AM PST 5:15 PM PST
Nautical Twilight 6:45 AM PST 5:55 PM PST
Astronomical Twilight 6:07 AM PST 6:33 PM PST
Moon 8:47 AM PST (1/13) 7:42 PM PST (1/13)
Length of Visible Light 9h 50m
Length of Day
8h 38m
Waxing Crescent, 6% of the Moon is Illuminated
Jan 13
Waxing Crescent
Jan 18
First Quarter
Jan 26
Full
Feb 3
Last Quarter
Feb 9
New

Hourly Weather History & Observations

Time (PST) Temp. Windchill Dew Point Humidity Pressure Visibility Wind Dir Wind Speed Gust Speed Precip Events Conditions
12:00 AM 25.9 °F 21.7 °F 19.0 °F 75% 30.49 in - NNE 3.5 mph - N/A   Unknown
2:00 AM 25.7 °F - 19.6 °F 78% 30.50 in - NE 2.3 mph - N/A   Unknown
3:00 AM 25.0 °F 20.7 °F 19.6 °F 80% 30.50 in - NE 3.5 mph - N/A   Unknown
4:00 AM 25 °F - 19 °F 71% 30.49 in - NNE 2.3 mph - -  
5:00 AM 24.3 °F - 19.6 °F 82% 30.49 in - NNE 2.3 mph - N/A   Unknown
6:00 AM 24.1 °F 19.7 °F 19.4 °F 82% 30.49 in - NNE 3.5 mph - N/A   Unknown
7:00 AM 24.4 °F - 19.4 °F 81% 30.51 in - NNE 2.3 mph - N/A   Unknown
8:00 AM 23.7 °F 19.3 °F 19.0 °F 82% 30.51 in - NE 3.5 mph - N/A   Unknown
9:00 AM 24.8 °F 20.5 °F 19.4 °F 80% 30.53 in - NNE 3.5 mph - N/A   Unknown
10:00 AM 26 °F - 20 °F 68% 30.52 in - NE 2.3 mph - -  
10:00 AM 25.9 °F - 19.8 °F 78% 30.52 in - NE 2.3 mph - N/A   Unknown
11:00 AM 30.4 °F - 21.2 °F 69% 30.51 in - ENE 2.3 mph - N/A   Unknown
12:00 PM 30.9 °F 27.5 °F 21.7 °F 69% 30.51 in - NE 3.5 mph - N/A   Unknown
1:00 PM 32.9 °F - 23.0 °F 67% 30.49 in - East 2.3 mph - N/A   Unknown
2:00 PM 33.6 °F - 23.0 °F 65% 30.49 in - ENE 2.3 mph - N/A   Unknown
3:00 PM 33.4 °F - 23.4 °F 67% 30.48 in - ESE 1.2 mph - N/A   Unknown
4:00 PM 33 °F - 24 °F 57% 30.49 in - ENE 1.2 mph - -  
4:00 PM 33.1 °F - 23.5 °F 68% 30.49 in - ENE 1.2 mph - N/A   Unknown
5:00 PM 31.3 °F - 23.4 °F 72% 30.50 in - East 1.2 mph - N/A   Unknown
6:00 PM 31.5 °F - 23.4 °F 72% 30.49 in - East 1.2 mph - N/A   Unknown
7:00 PM 31.6 °F - 23.2 °F 71% 30.51 in - NNE 2.3 mph - N/A   Unknown
8:00 PM 31.6 °F 28.3 °F 23.4 °F 71% 30.51 in - NE 3.5 mph - N/A   Unknown
9:00 PM 32.0 °F 28.7 °F 23.4 °F 70% 30.51 in - NE 3.5 mph - N/A   Unknown
10:00 PM 32 °F - 23 °F 58% 30.51 in - NE 3.5 mph - -  
11:00 PM 31.6 °F 28.3 °F 23.0 °F 70% 30.52 in - NNE 3.5 mph - N/A   Unknown